Weather History for K8D3 - November, 2011

Change the Weather History Date:

Sunday, November 20, 2011

  Actual Average Record
Temperature  
Mean Temperature 8 °F 28 °F  
Max Temperature 18 °F 38 °F 69 °F (1962)
Min Temperature -3 °F 19 °F -8 °F (1978)
Degree Days  
Heating Degree Days 57 37  
Month to date heating degree days 602 627  
Since 1 July heating degree days 1251 1454  
Cooling Degree Days 0 0  
Month to date cooling degree days 0 0  
Year to date cooling degree days 642 527  
Moisture  
Dew Point 2 °F    
Average Humidity 77    
Maximum Humidity 87    
Minimum Humidity 67    
Precipitation  
Precipitation 0.00 in 0.01 in 0.83 in (1953)
Month to date precipitation 0.16 0.48  
Year to date precipitation 21.13 21.84  
Snow  
Snow 0.00 in - - ()
Month to date snowfall 0.0  
Since 1 July snowfall 0.0  
Snow Depth 1.00 in    
Sea Level Pressure  
Sea Level Pressure 30.40 in    
Wind  
Wind Speed 7 mph (South)    
Max Wind Speed 16 mph    
Max Gust Speed 20 mph    
T = Trace of Precipitation, MM = Missing Value Source: NWS Daily Summary

Daily Weather History Graph

Daily Weather History Graph

Search for Another Location

Airport or City:

Trip Planner

Search our weather history database for the weather conditions in past years. The results will help you decide how hot, cold, wet, or windy it might be!

Date:

Astronomy

Nov. 20, 2011 Rise Set
Actual Time 7:34 AM CST 4:52 PM CST
Civil Twilight 7:01 AM CST 5:25 PM CST
Nautical Twilight 6:24 AM CST 6:01 PM CST
Astronomical Twilight 5:49 AM CST 6:36 PM CST
Moon 1:49 AM CST (11/20) 1:55 PM CST (11/20)
Length of Visible Light 10h 23m
Length of Day
9h 18m
Waning Crescent, 27% of the Moon is Illuminated
Nov 20
Waning Crescent
Nov 25
New
Dec 2
First Quarter
Dec 10
Full
Dec 17
Last Quarter

Hourly Weather History & Observations

Time (CST) Temp. Windchill Dew Point Humidity Pressure Visibility Wind Dir Wind Speed Gust Speed Precip Events Conditions
12:56 AM 9.0 °F -5.1 °F 3.0 °F 77% 30.38 in - North 10.4 mph - N/A   Unknown
1:56 AM 7.0 °F -6.6 °F 1.0 °F 77% 30.37 in - North 9.2 mph - N/A   Unknown
2:56 AM 3.9 °F -6.9 °F -0.0 °F 84% 30.40 in - NNW 5.8 mph - N/A   Unknown
3:56 AM 1.9 °F -5.6 °F -2.0 °F 83% 30.40 in - NW 3.5 mph - N/A   Unknown
4:56 AM -0.0 °F -7.9 °F -6.0 °F 76% 30.41 in - NW 3.5 mph - N/A   Unknown
5:56 AM -0.9 °F -11.0 °F -6.0 °F 79% 30.42 in - NNW 4.6 mph - N/A   Unknown
6:56 AM -2.9 °F -13.3 °F -8.0 °F 79% 30.44 in - NNW 4.6 mph - N/A   Unknown
7:56 AM -0.0 °F - -5.1 °F 79% 30.46 in - Calm Calm - N/A   Unknown
8:56 AM 5.0 °F -2.1 °F -0.0 °F 80% 30.48 in - WNW 3.5 mph - N/A   Unknown
9:56 AM 10.0 °F - 3.9 °F 76% 30.48 in - Calm Calm - N/A   Unknown
10:56 AM 10.9 °F 2.9 °F 3.9 °F 73% 30.47 in - South 4.6 mph - N/A   Unknown
11:56 AM 14.0 °F 5.1 °F 6.1 °F 71% 30.45 in - SSE 5.8 mph - N/A   Unknown
12:56 PM 16.0 °F 7.4 °F 7.0 °F 68% 30.42 in - SSE 5.8 mph - N/A   Unknown
1:56 PM 17.1 °F 7.6 °F 8.1 °F 68% 30.40 in - SE 6.9 mph - N/A   Unknown
2:56 PM 17.1 °F 6.6 °F 8.1 °F 68% 30.38 in - SSE 8.1 mph - N/A   Unknown
3:56 PM 16.0 °F 4.4 °F 7.0 °F 68% 30.38 in - SSE 9.2 mph - N/A   Unknown
4:56 PM 12.0 °F -1.3 °F 5.0 °F 73% 30.38 in - South 10.4 mph - N/A   Unknown
5:56 PM 9.0 °F -5.1 °F 3.0 °F 77% 30.39 in - South 10.4 mph - 0.01 in   Unknown
6:56 PM 8.1 °F -5.3 °F 1.9 °F 76% 30.39 in - SSW 9.2 mph - N/A   Unknown
7:56 PM 7.0 °F -6.6 °F 1.9 °F 80% 30.37 in - South 9.2 mph - N/A   Unknown
8:56 PM 7.0 °F -5.7 °F 1.9 °F 80% 30.36 in - South 8.1 mph - N/A   Unknown
9:56 PM 8.1 °F -5.3 °F 1.9 °F 76% 30.34 in - South 9.2 mph - N/A   Unknown
10:56 PM 8.1 °F -7.0 °F 3.0 °F 80% 30.32 in - South 11.5 mph - N/A   Unknown
11:56 PM 7.0 °F -9.8 °F 1.9 °F 80% 30.30 in - SSE 13.8 mph - N/A   Unknown